Tucson, AZ

1:51 PM MST on August 22, 2019 (GMT -0700)
Tucson International

Weather History for KTUS - May, 2019

Change the Weather History Date:

Thursday, May 30, 2019

  Actual Average Record
Temperature  
Mean Temperature 76 °F 80 °F  
Max Temperature 92 °F 96 °F 110 °F (1910)
Min Temperature 59 °F 64 °F 42 °F (1909)
Degree Days  
Heating Degree Days 0 0  
Month to date heating degree days 1 3  
Since 1 July heating degree days 1409 1509  
Cooling Degree Days 11 15  
Month to date cooling degree days 178 332  
Year to date cooling degree days 358 486  
Growing Degree Days 25 (Base 50)    
Moisture  
Dew Point 28 °F    
Average Humidity 17    
Maximum Humidity 36    
Minimum Humidity 4    
Precipitation  
Precipitation 0.00 in 0.00 in 0.44 in (1986)
Month to date precipitation 1.22 0.22  
Year to date precipitation 5.03 3.06  
Sea Level Pressure  
Sea Level Pressure 29.79 in    
Wind  
Wind Speed 6 mph (South)    
Max Wind Speed 13 mph    
Max Gust Speed 21 mph    
Visibility 10 miles    
Events      
T = Trace of Precipitation, MM = Missing Value Source: NWS Daily Summary

Daily Weather History Graph

Daily Weather History Graph

Search for Another Location

Airport or City:

Astronomy

May. 30, 2019 Rise Set
Actual Time 5:18 AM MST 7:24 PM MST
Civil Twilight 4:51 AM MST 7:51 PM MST
Nautical Twilight 4:17 AM MST 8:25 PM MST
Astronomical Twilight 3:41 AM MST 9:02 PM MST
Moon 3:07 AM MST (5/30) 3:51 PM MST (5/30)
Length of Visible Light 15h 00m
Length of Day
14h 05m
Waning Crescent, 14% of the Moon is Illuminated
May 30
Waning Crescent
Jun 3
New
Jun 9
First Quarter
Jun 17
Full
Jun 25
Last Quarter

Hourly Weather History & Observations

Time (MST) Temp. Dew Point Humidity Pressure Visibility Wind Dir Wind Speed Gust Speed Precip Events Conditions
12:53 AM 64.0 °F 28.0 °F 26% 29.78 in 10.0 mi SSE 4.6 mph - N/A   Clear
1:53 AM 62.1 °F 28.0 °F 28% 29.79 in 10.0 mi SSE 6.9 mph - N/A   Clear
2:53 AM 62.1 °F 30.0 °F 30% 29.80 in 10.0 mi SE 8.1 mph - N/A   Clear
3:53 AM 61.0 °F 32.0 °F 34% 29.79 in 10.0 mi SE 6.9 mph - N/A   Clear
4:53 AM 60.1 °F 30.9 °F 33% 29.80 in 10.0 mi SE 6.9 mph - N/A   Clear
5:53 AM 59.0 °F 32.0 °F 36% 29.82 in 10.0 mi SE 8.1 mph - N/A   Clear
6:53 AM 64.0 °F 33.1 °F 31% 29.83 in 10.0 mi SSE 8.1 mph - N/A   Clear
7:53 AM 71.1 °F 34.0 °F 26% 29.83 in 10.0 mi South 8.1 mph - N/A   Clear
8:53 AM 75.9 °F 34.0 °F 22% 29.83 in 10.0 mi SSE 5.8 mph - N/A   Clear
9:53 AM 81.0 °F 33.1 °F 18% 29.83 in 10.0 mi Calm Calm - N/A   Clear
10:53 AM 84.9 °F 28.9 °F 13% 29.82 in 10.0 mi North - - N/A   Clear
11:53 AM 86.0 °F 24.1 °F 10% 29.81 in 10.0 mi East 5.8 mph 16.1 mph N/A   Clear
12:13 PM 86.0 °F 24.1 °F 10% 29.93 in 10.0 mi South 9.2 mph 17.3 mph N/A   Clear
12:53 PM 88.0 °F 24.1 °F 10% 29.80 in 10.0 mi SSW 8.1 mph - N/A   Clear
1:53 PM 90.0 °F 21.0 °F 8% 29.78 in 10.0 mi SSW 8.1 mph - N/A   Clear
2:53 PM 90.0 °F 21.9 °F 8% 29.75 in 10.0 mi Calm Calm - N/A   Clear
3:03 PM 91.9 °F 23.0 °F 8% 29.87 in 10.0 mi Variable 6.9 mph - N/A   Clear
3:53 PM 90.0 °F 24.1 °F 9% 29.73 in 10.0 mi West 8.1 mph 17.3 mph N/A   Clear
4:53 PM 90.0 °F 24.1 °F 9% 29.72 in 10.0 mi Variable 3.5 mph - N/A   Clear
5:53 PM 90.0 °F 25.0 °F 10% 29.72 in 10.0 mi SSW 5.8 mph - N/A   Clear
6:53 PM 88.0 °F 24.1 °F 10% 29.72 in 10.0 mi West 4.6 mph - N/A   Clear
7:53 PM 82.9 °F 26.1 °F 13% 29.74 in 10.0 mi West 4.6 mph - N/A   Clear
8:53 PM 79.0 °F 28.0 °F 15% 29.76 in 10.0 mi West 4.6 mph - N/A   Clear
9:53 PM 78.1 °F 28.9 °F 17% 29.79 in 10.0 mi West 9.2 mph - N/A   Clear
10:53 PM 75.9 °F 34.0 °F 22% 29.80 in 10.0 mi WSW 8.1 mph - N/A   Clear
11:53 PM 73.0 °F 35.1 °F 25% 29.81 in 10.0 mi SSW 4.6 mph - N/A   Clear